TimeMST,TemperatureF,Dew PointF,Humidity,Sea Level PressureIn,VisibilityMPH,Wind Direction,Wind SpeedMPH,Gust SpeedMPH,PrecipitationIn,Events,Conditions,WindDirDegrees,DateUTC
12:15 AM,35.6,-4.0,18,30.01,10.0,West,31.1,50.6,N/A,,Clear,280,2014-02-18 07:15:00
12:35 AM,35.6,-4.0,18,30.01,10.0,West,26.5,41.4,N/A,,Clear,270,2014-02-18 07:35:00
12:55 AM,35.6,-4.0,18,30.01,10.0,West,27.6,42.6,N/A,,Clear,270,2014-02-18 07:55:00
1:15 AM,35.6,-2.2,20,30.01,10.0,West,32.2,49.5,N/A,,Clear,270,2014-02-18 08:15:00
1:35 AM,35.6,-0.4,22,30.00,10.0,West,28.8,49.5,N/A,,Clear,280,2014-02-18 08:35:00
1:55 AM,35.6,-0.4,22,29.98,10.0,West,24.2,40.3,N/A,,Clear,280,2014-02-18 08:55:00
2:14 AM,35.6,-0.4,22,29.98,10.0,WNW,21.9,47.2,N/A,,Clear,290,2014-02-18 09:14:00
2:35 AM,37.4,-0.4,20,29.96,10.0,West,32.2,50.6,N/A,,Clear,280,2014-02-18 09:35:00
2:55 AM,37.4,-0.4,20,29.95,10.0,WNW,28.8,49.5,N/A,,Clear,290,2014-02-18 09:55:00
3:15 AM,35.6,-0.4,22,29.94,10.0,WNW,33.4,49.5,N/A,,Clear,290,2014-02-18 10:15:00
3:35 AM,35.6,1.4,24,29.94,10.0,WNW,33.4,55.2,N/A,,Clear,290,2014-02-18 10:35:00
3:55 AM,35.6,1.4,24,29.96,10.0,WNW,27.6,43.7,N/A,,Clear,300,2014-02-18 10:55:00
4:15 AM,35.6,3.2,26,29.96,10.0,WNW,23.0,46.0,N/A,,Clear,290,2014-02-18 11:15:00
4:35 AM,35.6,3.2,26,29.98,10.0,NW,13.8,36.8,N/A,,Clear,310,2014-02-18 11:35:00
4:55 AM,35.6,3.2,26,29.97,10.0,WNW,23.0,35.7,N/A,,Clear,300,2014-02-18 11:55:00
5:15 AM,35.6,3.2,26,29.99,10.0,WNW,24.2,48.3,N/A,,Clear,300,2014-02-18 12:15:00
5:35 AM,35.6,3.2,26,30.00,10.0,WNW,23.0,46.0,N/A,,Clear,300,2014-02-18 12:35:00
5:55 AM,35.6,3.2,26,30.02,10.0,NW,15.0,36.8,N/A,,Clear,320,2014-02-18 12:55:00
6:15 AM,33.8,3.2,28,30.03,10.0,NW,11.5,29.9,N/A,,Clear,320,2014-02-18 13:15:00
6:35 AM,35.6,3.2,26,30.03,10.0,WNW,21.9,34.5,N/A,,Clear,300,2014-02-18 13:35:00
6:55 AM,33.8,5.0,30,30.03,10.0,NNW,12.7,29.9,N/A,,Clear,330,2014-02-18 13:55:00
7:15 AM,33.8,5.0,30,30.03,10.0,WNW,18.4,35.7,N/A,,Clear,300,2014-02-18 14:15:00
7:35 AM,33.8,3.2,28,30.03,10.0,WNW,23.0,38.0,N/A,,Clear,300,2014-02-18 14:35:00
7:55 AM,33.8,5.0,30,30.04,10.0,NW,12.7,27.6,N/A,,Clear,320,2014-02-18 14:55:00
8:15 AM,33.8,3.2,28,30.06,10.0,NW,15.0,32.2,N/A,,Clear,310,2014-02-18 15:15:00
8:35 AM,35.6,1.4,24,30.05,10.0,WNW,17.3,38.0,N/A,,Clear,300,2014-02-18 15:35:00
8:55 AM,35.6,-0.4,22,30.06,10.0,WNW,20.7,32.2,N/A,,Clear,290,2014-02-18 15:55:00
9:15 AM,37.4,-0.4,20,30.05,10.0,West,24.2,40.3,N/A,,Clear,280,2014-02-18 16:15:00
9:35 AM,37.4,-0.4,20,30.05,10.0,West,26.5,39.1,N/A,,Clear,280,2014-02-18 16:35:00
9:54 AM,37.4,-2.2,19,30.05,10.0,West,25.3,39.1,N/A,,Clear,280,2014-02-18 16:54:00
10:14 AM,37.4,-4.0,17,30.06,10.0,West,27.6,47.2,N/A,,Clear,270,2014-02-18 17:14:00
10:34 AM,39.2,-4.0,16,30.05,10.0,West,25.3,49.5,N/A,,Clear,280,2014-02-18 17:34:00
10:55 AM,39.2,-5.8,15,30.05,10.0,WNW,24.2,46.0,N/A,,Clear,290,2014-02-18 17:55:00
11:15 AM,41.0,-5.8,14,30.07,10.0,WNW,11.5,38.0,N/A,,Clear,300,2014-02-18 18:15:00
11:35 AM,41.0,-5.8,14,30.08,10.0,WNW,15.0,29.9,N/A,,Clear,290,2014-02-18 18:35:00
11:55 AM,42.8,-2.2,15,30.08,10.0,West,9.2,-,N/A,,Clear,270,2014-02-18 18:55:00
12:15 PM,42.8,-5.8,13,30.07,10.0,NW,4.6,27.6,N/A,,Clear,310,2014-02-18 19:15:00
12:34 PM,42.8,-5.8,13,30.07,10.0,WNW,6.9,25.3,N/A,,Clear,300,2014-02-18 19:34:00
12:55 PM,42.8,-9.4,11,30.07,10.0,NW,5.8,26.5,N/A,,Clear,320,2014-02-18 19:55:00
1:15 PM,44.6,-4.0,13,30.07,10.0,WNW,5.8,-,N/A,,Clear,290,2014-02-18 20:15:00
1:35 PM,44.6,-7.6,11,30.07,10.0,West,15.0,25.3,N/A,,Clear,260,2014-02-18 20:35:00
1:55 PM,44.6,-5.8,12,30.07,10.0,West,17.3,31.1,N/A,,Clear,280,2014-02-18 20:55:00
2:15 PM,42.8,-5.8,13,30.07,10.0,West,11.5,26.5,N/A,,Clear,280,2014-02-18 21:15:00
2:35 PM,42.8,-7.6,12,30.07,10.0,West,12.7,29.9,N/A,,Clear,280,2014-02-18 21:35:00
2:55 PM,42.8,-9.4,11,30.07,10.0,WNW,13.8,32.2,N/A,,Clear,300,2014-02-18 21:55:00
3:15 PM,42.8,-9.4,11,30.07,10.0,NNW,8.1,28.8,N/A,,Clear,340,2014-02-18 22:15:00
3:35 PM,42.8,-13.0,9,30.07,10.0,WNW,13.8,29.9,N/A,,Clear,290,2014-02-18 22:35:00
3:55 PM,42.8,-9.4,11,30.08,10.0,West,15.0,25.3,N/A,,Clear,280,2014-02-18 22:55:00
4:15 PM,42.8,-14.8,8,30.08,10.0,WNW,9.2,25.3,N/A,,Clear,290,2014-02-18 23:15:00
4:35 PM,42.8,-14.8,8,30.09,10.0,WNW,15.0,23.0,N/A,,Clear,300,2014-02-18 23:35:00
4:55 PM,41.0,-16.6,8,30.09,10.0,West,17.3,28.8,N/A,,Clear,280,2014-02-18 23:55:00
5:15 PM,41.0,-14.8,9,30.09,10.0,WNW,10.4,21.9,N/A,,Clear,300,2014-02-19 00:15:00
5:35 PM,39.2,-14.8,10,30.10,10.0,North,3.5,24.2,N/A,,Clear,350,2014-02-19 00:35:00
5:55 PM,37.4,-7.6,15,30.10,10.0,Calm,Calm,-,N/A,,Clear,0,2014-02-19 00:55:00
6:15 PM,37.4,-9.4,13,30.10,10.0,WNW,3.5,-,N/A,,Clear,290,2014-02-19 01:15:00
6:35 PM,37.4,-13.0,11,30.11,10.0,WNW,8.1,-,N/A,,Clear,290,2014-02-19 01:35:00
6:55 PM,35.6,-7.6,16,30.11,10.0,NW,3.5,-,N/A,,Clear,310,2014-02-19 01:55:00
7:15 PM,35.6,-9.4,14,30.10,10.0,WNW,5.8,-,N/A,,Clear,290,2014-02-19 02:15:00
7:35 PM,37.4,-7.6,15,30.10,10.0,West,10.4,24.2,N/A,,Clear,270,2014-02-19 02:35:00
7:55 PM,37.4,-7.6,15,30.10,10.0,West,10.4,24.2,N/A,,Clear,260,2014-02-19 02:55:00
8:15 PM,37.4,-9.4,13,30.10,10.0,WNW,8.1,17.3,N/A,,Clear,290,2014-02-19 03:15:00
8:35 PM,37.4,-9.4,13,30.10,10.0,NW,4.6,23.0,N/A,,Clear,310,2014-02-19 03:35:00
8:55 PM,37.4,-7.6,15,30.10,10.0,West,10.4,17.3,N/A,,Clear,260,2014-02-19 03:55:00
9:15 PM,37.4,-5.8,16,30.10,10.0,WSW,5.8,17.3,N/A,,Clear,250,2014-02-19 04:15:00
9:35 PM,37.4,-5.8,16,30.11,10.0,Calm,Calm,-,N/A,,Clear,0,2014-02-19 04:35:00
9:55 PM,37.4,-7.6,15,30.10,10.0,South,3.5,-,N/A,,Clear,170,2014-02-19 04:55:00
10:15 PM,37.4,-7.6,15,30.10,10.0,Calm,Calm,-,N/A,,Clear,0,2014-02-19 05:15:00
10:35 PM,35.6,-7.6,16,30.09,10.0,South,3.5,-,N/A,,Clear,190,2014-02-19 05:35:00
10:54 PM,35.6,-2.2,20,30.08,10.0,Calm,Calm,-,N/A,,Clear,0,2014-02-19 05:54:00
11:14 PM,35.6,-0.4,22,30.07,10.0,North,3.5,-,N/A,,Clear,350,2014-02-19 06:14:00
11:35 PM,35.6,1.4,24,30.07,10.0,North,4.6,-,N/A,,Clear,350,2014-02-19 06:35:00
11:55 PM,35.6,-0.4,22,30.05,10.0,NNW,5.8,-,N/A,,Clear,330,2014-02-19 06:55:00